Home > Weather > Clovis > Past weeks

Flag for USA Past Weather in Clovis, New Mexico, USA — Yesterday and Last 2 Weeks

Now
63 °F

Clear.


Feels Like: 63 °F
Forecast: 54 / 87 °F
Wind: 13 mph from Northwest

Location: Cannon Air Force Base / Clovis

Current Time: May 25, 2016 at 3:18:37 AM

Latest Report: May 25, 2016 at 2:58 AM


Visibility: 10 mi

Pressure: 29.77 "Hg (25.54 "Hg at 1300m altitude)

Humidity: 23%

Dew Point: 25 °F

Location of ClovisLocation

Past Weather in Clovis — Graph

°F

Clovis Temperature Yesterday

Maximum temperature yesterday: 89 °F (at 4:58 PM)
Minimum temperature yesterday: 55 °F (at 5:58 AM)
Average temperature yesterday: 73 °F

High & Low Weather Summary for the Past Weeks

 TemperatureHumidityPressure
High89 °F (May 24, 4:58 PM)100% (May 12, 2:03 AM)30.36 "Hg (May 12, 2:03 AM)
Low45 °F (May 14, 7:58 AM)6% (May 16, 4:58 PM)29.59 "Hg (May 16, 4:58 PM)
Average63 °F64%29.94 "Hg
* Reported May 10 1:58 AM — May 25 1:58 AM, Clovis, Weather by CustomWeather, © 2016

Note: Actual official high and low records may vary slightly from our data, if they occured in-between our weather recording intervals... More about our weather records

Advertising

Clovis Weather History for the Previous 24 Hours

Scroll right to see more
 ConditionsComfort  
Time TempWeatherWind HumidityBarometerVisibility
1:58 AM
Wed, May 25
59 °FClear.12 mph30%29.77 "Hg10 mi
12:58 AM61 °FClear.5 mph27%29.78 "Hg10 mi
11:58 PM
Tue, May 24
58 °FClear.6 mph35%29.78 "Hg10 mi
10:58 PM61 °FClear.10 mph32%29.78 "Hg10 mi
9:58 PM65 °FClear.10 mph27%29.77 "Hg10 mi
8:58 PM71 °FClear.13 mph20%29.75 "Hg10 mi
7:58 PM74 °FSunny.8 mph20%29.73 "Hg10 mi
6:58 PM86 °FSunny.14 mph8%29.69 "Hg10 mi
5:58 PM88 °FSunny.18 mph8%29.69 "Hg10 mi
4:58 PM89 °FSunny.18 mph9%29.70 "Hg10 mi
3:58 PM89 °FSunny.17 mph9%29.72 "Hg10 mi
3:03 PM88 °FSunny.14 mph9%29.90 "Hg10 mi
2:58 PM88 °FSunny.21 mph10%29.72 "Hg10 mi
1:58 PM88 °FPassing clouds.15 mph9%29.75 "Hg10 mi
12:58 PM86 °FPassing clouds.13 mph10%29.75 "Hg10 mi
11:58 AM85 °FSunny.15 mph15%29.77 "Hg10 mi
10:58 AM81 °FSunny.6 mph24%29.78 "Hg10 mi
9:58 AM77 °FPassing clouds.8 mph36%29.78 "Hg10 mi
8:58 AM72 °FSunny.10 mph51%29.77 "Hg10 mi
7:58 AM67 °FSunny.12 mph72%29.94 "Hg10 mi
6:58 AM62 °FSunny.2 mph71%29.93 "Hg10 mi
5:58 AM55 °FClear.No wind68%29.75 "Hg10 mi
4:58 AM57 °FClear.2 mph62%29.74 "Hg10 mi
3:58 AM58 °FClear.3 mph49%29.72 "Hg10 mi
Weather by CustomWeather, © 2016

See weather overviewHow to use our weather pages